Location: Burbank
(38.7788°N, 114.0429°W)
Time: 13:35:18
(UTC+00:00)

Transit 4A - All Passes

Search period start: 13 May 2026 00:00
Search period end: 23 May 2026 00:00
Orbit: 861 x 980 km, 66.8° (Epoch: 13 May)

Date Brightness Start Highest point End Pass type
(mag) Time Alt. Az. Time Alt. Az. Time Alt. Az.
13 May - 00:12:56 10° NNW 00:18:45 35° NE 00:24:29 10° ESE daylight
13 May - 01:59:11 10° NW 02:05:09 42° WSW 02:11:01 10° S daylight
13 May - 15:17:36 10° S 15:23:30 55° ESE 15:29:36 10° NE daylight
13 May - 17:05:05 10° WSW 17:10:10 27° NW 17:15:25 10° N daylight
13 May - 22:38:05 10° NNE 22:39:42 11° NE 22:41:18 10° NE daylight
14 May - 00:21:28 10° NNW 00:27:41 49° NE 00:33:47 10° SE daylight
14 May - 02:08:23 10° NW 02:13:41 28° WSW 02:18:55 10° SSW daylight
14 May - 13:45:35 10° ESE 13:46:55 11° E 13:48:16 10° E daylight
14 May - 15:26:05 10° SSW 15:32:10 82° ESE 15:38:27 10° NNE daylight
14 May - 17:14:55 10° W 17:19:16 20° NW 17:23:43 10° N daylight
14 May - 22:45:29 10° N 22:48:58 15° NE 22:52:27 10° ENE daylight
15 May - 00:30:05 10° NNW 00:36:30 70° ENE 00:42:49 10° SE daylight
15 May - 02:17:58 10° WNW 02:22:10 19° WSW 02:26:19 10° SW daylight
15 May - 13:51:25 10° SE 13:55:18 18° ESE 13:59:14 10° ENE daylight
15 May - 15:34:50 10° SW 15:40:54 70° WNW 15:47:12 10° NNE daylight
15 May - 17:25:12 10° WNW 17:28:27 14° NW 17:31:46 10° N daylight
15 May - 22:53:33 10° N 22:58:09 20° NE 23:02:43 10° E daylight
16 May - 00:38:49 10° NNW 00:45:16 82° WSW 00:51:35 10° SSE daylight
16 May - 02:28:37 10° W 02:30:34 11° W 02:32:30 10° WSW daylight
16 May - 13:58:46 10° SSE 14:03:45 27° ESE 14:08:51 10° NE daylight
16 May - 15:43:51 10° SW 15:49:44 48° NW 15:55:50 10° NNE daylight
16 May - 17:36:33 10° NW 17:37:45 10° NNW 17:38:55 10° NNW daylight
16 May - 23:01:51 10° N 23:07:14 27° NE 23:12:34 10° ESE daylight
17 May - 00:47:40 10° NW 00:53:56 56° WSW 01:00:05 10° S daylight
17 May - 14:06:39 10° S 14:12:16 41° ESE 14:18:04 10° NE daylight
17 May - 15:53:08 10° WSW 15:58:39 34° NW 16:04:21 10° NNE daylight
17 May - 23:10:17 10° NNW 23:16:13 38° NE 23:22:04 10° ESE daylight
18 May - 00:56:42 10° NW 01:02:32 38° WSW 01:08:15 10° S daylight
18 May - 14:14:54 10° SSW 14:20:52 61° ESE 14:27:04 10° NE daylight
18 May - 16:02:42 10° W 16:07:40 25° NW 16:12:46 10° N daylight
18 May - 21:35:02 10° NNE 21:37:15 12° NE 21:39:27 10° NE daylight
18 May - 23:18:51 10° NNW 23:25:08 53° ENE 23:31:18 10° SE daylight
19 May - 01:05:58 10° NW 01:11:03 25° WSW 01:16:04 10° SSW daylight
19 May - 12:41:53 10° ESE 12:44:14 12° E 12:46:35 10° ENE daylight
19 May - 14:23:27 10° SSW 14:29:33 89° ESE 14:35:54 10° NNE daylight
19 May - 16:12:38 10° W 16:16:46 18° NW 16:21:00 10° N daylight
19 May - 21:42:42 10° N 21:46:31 16° NE 21:50:17 10° ENE daylight
19 May - 23:27:30 10° NNW 23:33:56 76° ENE 23:40:15 10° SSE daylight
20 May - 01:15:41 10° WNW 01:19:30 17° WSW 01:23:16 10° SW daylight
20 May - 12:48:24 10° SSE 12:52:38 20° ESE 12:56:56 10° ENE daylight
20 May - 14:32:16 10° SW 14:38:19 64° WNW 14:44:36 10° NNE daylight
20 May - 16:23:03 10° WNW 16:25:59 13° NW 16:28:57 10° N daylight
20 May - 21:50:50 10° N 21:55:40 22° NE 22:00:26 10° E daylight
20 May - 23:36:16 10° NNW 23:42:40 75° WSW 23:48:57 10° SSE daylight
21 May - 12:55:55 10° SSE 13:01:06 30° ESE 13:06:26 10° NE daylight
21 May - 14:41:20 10° SW 14:47:10 44° NW 14:53:12 10° NNE daylight
21 May - 21:59:11 10° N 22:04:43 29° NE 22:10:11 10° ESE daylight
21 May - 23:45:09 10° NW 23:51:19 51° WSW 23:57:22 10° S daylight
22 May - 13:03:54 10° S 13:09:39 45° ESE 13:15:35 10° NE daylight
22 May - 14:50:42 10° WSW 14:56:07 32° NW 15:01:42 10° NNE daylight
22 May - 22:07:39 10° NNW 22:13:41 41° NE 22:19:37 10° ESE daylight
